This demonstration page uses our WeatherBlox Daily Observations layout. Learn more.

39.08367, -84.50855

Hourly Observations for January 3, 2020

Temp ( °F °C ) Dew Point ( °F °C ) Humidity (%) Winds ( mph kmh ) Pressure ( in mb ) Visibility ( mi km ) Precip ( " mm )
12:21 am 00:21 Cloudy with Light Rain 47 8.3 47 8.3 100 100 Calm 29.75 1007 2 3.21868 0.01 0.254
12:53 am 00:53 Cloudy with Light Rain 47 8.3 47 8.3 100 100 Calm 29.75 1007 2.5 4.02335 0.01 0.254
1:17 am 01:17 Cloudy with Light Rain 47 8.3 46 7.8 97 97 N 3 6 29.75 1007 1.75 2.816345 0.01 0.254
1:27 am 01:27 Cloudy with Light Rain 47 8.3 47 8.3 100 100 Calm 29.74 1007 3 4.82802 0.02 0.508
1:41 am 01:41 Cloudy with Light Rain 48 8.9 47 8.3 96 96 Calm 29.75 1007 5 8.0467 0.02 0.508
1:53 am 01:53 Cloudy with Light Rain 48 8.9 47 8.3 96 96 Calm 29.73 1007 5 8.0467 0.03 0.762
2:21 am 02:21 Cloudy with Light Rain 49 9.4 48 8.9 97 97 Calm 29.72 1006 9 14.48406 0.01 0.254
2:48 am 02:48 Cloudy with Light Rain 48 9 48 9 100 100 W 6 9 29.74 1007 6 9.65604 0.01 0.254
2:53 am 02:53 Cloudy with Light Rain 49 9.4 49 9.4 100 100 W 5 7 29.72 1006 6 9.65604 0.01 0.254
3:53 am 03:53 Cloudy with Light Rain 49 9.4 48 8.9 97 97 Calm 29.75 1008 4 6.43736 0.05 1.27
4:07 am 04:07 Cloudy with Light Rain 49 9.4 48 8.9 97 97 Calm 29.74 1007 2.5 4.02335 0.03 0.762
4:19 am 04:19 Cloudy with Light Rain 49 9.4 49 9.4 100 100 Calm 29.76 1008 4 6.43736 0.04 1.016
4:53 am 04:53 Cloudy with Light Rain 50 10 49 9.4 96 96 Calm 29.75 1007 4 6.43736 0.05 1.27
5:07 am 05:07 Cloudy with Light Rain 50 10 49 9.4 96 96 Calm 29.75 1007 6 9.65604 0.01 0.254
5:15 am 05:15 Cloudy with Light Rain 50 10 49 9.4 96 96 Calm 29.75 1007 4 6.43736 0.02 0.508
5:53 am 05:53 Cloudy with Light Rain 50 10 50 10 100 100 Calm 29.77 1008 3 4.82802 0.06 1.524
6:15 am 06:15 Cloudy with Light Rain 50 10 49 9.4 96 96 Calm 29.76 1008 4 6.43736 0.02 0.508
6:53 am 06:53 Cloudy with Light Rain 51 10.6 50 10 96 96 Calm 29.77 1008 6 9.65604 0.03 0.762
7:53 am 07:53 Cloudy with Light Rain 50 10 50 10 100 100 Calm 29.8 1009 7 11.26538 0.04 1.016
8:53 am 08:53 Cloudy with Light Rain 51 10.6 50 10 96 96 SE 3 6 29.81 1009 6 9.65604 0.05 1.27
9:53 am 09:53 Cloudy with Light Rain 51 10.6 51 10.6 100 100 Calm 29.81 1009 10 16.0934 0.01 0.254
10:53 am 10:53 Cloudy with Light Rain 52 11.1 51 10.6 97 97 W 3 6 29.82 1010 10 16.0934 0.001 0.001
11:53 am 11:53 Cloudy 53 11.7 52 11.1 96 96 S 8 13 29.78 1009 10 16.0934 0.01 0.254
12:53 pm 12:53 Cloudy 54 12.2 52 11.1 93 93 SSW 7 11 29.75 1008 10 16.0934 0.001 0.001
1:28 pm 13:28 Cloudy with Light Rain 53 11.7 52 11.1 96 96 SSW 3 6 29.75 1008 2 3.21868 0.001 0.001
1:53 pm 13:53 Cloudy with Light Rain 53 11.7 53 11.7 100 100 SSW 3 6 29.75 1008 2.5 4.02335 0.01 0.254
2:53 pm 14:53 Cloudy with Light Rain 53 11.7 53 11.7 100 100 Calm 29.73 1007 3 4.82802 0.03 0.762
3:53 pm 15:53 Cloudy with Light Rain 54 12.2 53 11.7 97 97 Calm 29.74 1007 3 4.82802 0.02 0.508
4:53 pm 16:53 Cloudy with Light Rain 53 11.7 52 11.1 96 96 Calm 29.75 1007 2 3.21868 0.02 0.508
5:42 pm 17:42 Cloudy with Rain 52 11.1 52 11.1 100 100 Calm 29.77 1008 2 3.21868 0.07 1.778
5:53 pm 17:53 Mostly Cloudy with Rain 52 11.1 52 11.1 100 100 Calm 29.75 1008 1 1.60934 0.1 2.54
6:01 pm 18:01 Cloudy with Light Rain 52 11.1 52 11.1 100 100 Calm 29.77 1008 1.25 2.011675 0.01 0.254
6:53 pm 18:53 Cloudy with Light Rain 51 10.6 50 10 96 96 N 6 9 29.76 1008 1 1.60934 0.07 1.778
7:00 pm 19:00 Cloudy with Light Rain 51 10.6 50 10 96 96 Calm 29.77 1008 4 6.43736 0.001 0.001
7:41 pm 19:41 Cloudy with Mist and Fog 50 10 49 9.4 96 96 N 6 9 29.77 1008 4 6.43736 0.001 0.001
7:53 pm 19:53 Cloudy with Light Rain 50 10 49 9.4 96 96 NE 6 9 29.76 1008 5 8.0467 0.01 0.254
8:07 pm 20:07 Cloudy with Mist and Fog 50 10 49 9.4 96 96 N 3 6 29.77 1008 6 9.65604 0.001 0.001
8:50 pm 20:50 Cloudy with Rain 50 10 48 9 94 94 NNW 8 13 29.79 1009 4 6.43736 0.02 0.508
8:51 pm 20:51 Cloudy with Rain 50 10 48 8.9 93 93 NNW 9 15 29.78 1008 4 6.43736 0.02 0.508
9:05 pm 21:05 Cloudy with Light Rain 50 10 48 8.9 93 93 NW 6 9 29.8 1009 5 8.0467 0.01 0.254
9:13 pm 21:13 Cloudy with Heavy Rain 50 10 48 8.9 93 93 WNW 3 6 29.8 1009 3 4.82802 0.03 0.762
9:17 pm 21:17 Cloudy with Rain 49 9.4 48 8.9 97 97 NW 7 11 29.8 1009 2.5 4.02335 0.04 1.016
9:21 pm 21:21 Cloudy with Rain 49 9.4 47 8.3 93 93 NNW 6 9 29.8 1009 2.5 4.02335 0.05 1.27
9:53 pm 21:53 Cloudy with Light Rain 49 9.4 47 8.3 93 93 NNE 3 6 29.78 1008 4 6.43736 0.07 1.778
10:53 pm 22:53 Cloudy 48 8.9 47 8.3 96 96 Calm 29.79 1009 8 12.87472 0.001 0.001
11:00 pm 23:00 Cloudy 48 8.9 47 8.3 96 96 Calm 29.8 1009 8 12.87472 0.01 0.254
11:10 pm 23:10 Cloudy with Mist and Fog 47 8.3 46 7.8 97 97 Calm 29.8 1009 5 8.0467 0.01 0.254
11:53 pm 23:53 Cloudy 48 8.9 47 8.3 96 96 WNW 5 7 29.8 1009 8 12.87472 0.01 0.254

Powered by AerisWeather